Warning: Javascript must be enabled to use all the features on this page!


Page Loading - Please Wait...

* We've detected you're using a mobile device. Find our mobile dedicated web site here.
Click to hideNews Bulletins

Streamflow Measurements for the Nation


USGS 01408205 Barnegat Bay at Route 37 bridge near Bay Shore NJ


Ocean County, New Jersey
Hydrologic Unit Code 02040301
Latitude  39°56'29", Longitude  74°05'02" NAD83
Output formats
HTML table with channel data
HTML table without channel data
Tab-separated data with channel data
Tab-separated data without channel data
Graph of data
Reselect output format
Meas.
Number
  Date       Time Time
Datum
Measurement
Used?
  Who Measuring
Agency
Stream
flow
(ft3/s)
Gage
Height
(ft)
GH
Change
(ft)
Meas.
Duration
(hr)
Meas.
Rated
  Control Flow
Adjust.
Code
 
1682014-07-11 12:04EDTYesmn/kmbUSGS65200.25 0.20Unspecified MEAS
1672014-07-11 11:53:30EDTYesmn/kmbUSGS109000.28 0.20Unspecified MEAS
1662014-07-11 11:43EDTYesmn/kmbUSGS55900.31 0.20Unspecified MEAS
1652014-07-11 11:33EDTYesmn/kmbUSGS99300.34 0.20Unspecified MEAS
1642014-07-11 11:23EDTYesmn/kmbUSGS23300.35 0.20Unspecified MEAS
1632014-07-11 11:13EDTYesmn/kmbUSGS60400.37 0.20Unspecified MEAS
1622014-07-11 11:03EDTYesmn/kmbUSGS8400.41 0.20Unspecified MEAS
1612014-07-11 10:52:30EDTYesmn/kmbUSGS22500.41 0.20Unspecified MEAS
1602014-07-11 10:42:30EDTYesmn/kmbUSGS-16600.42 0.20Unspecified MEAS
1592014-07-11 10:32EDTYesmn/kmbUSGS-2420.43 0.20Unspecified MEAS
1582014-07-11 10:22EDTYesmn/kmbUSGS-40800.42 0.20Unspecified MEAS
1572014-07-11 10:12EDTYesmn/kmbUSGS-13800.40 0.20Unspecified MEAS
1562014-07-11 10:02EDTYesmn/kmbUSGS-55200.40 0.20Unspecified MEAS
1552014-07-11 09:52EDTYesmn/kmbUSGS-25900.40 0.20Unspecified MEAS
1542014-07-11 09:42EDTYesmn/kmbUSGS-74400.37 0.20Unspecified MEAS
1532014-07-11 09:31EDTYesmn/kmbUSGS-57300.35 0.20Unspecified MEAS
1522014-07-11 09:20:30EDTYesmn/kmbUSGS-104000.34 0.20Unspecified MEAS
1512014-07-11 09:10EDTYesmn/kmbUSGS-82200.29 0.20Unspecified MEAS
1502014-07-11 09:00EDTYesmn/kmbUSGS-113000.28 0.20Unspecified MEAS
1492014-07-11 08:49:30EDTYesmn/kmbUSGS-88800.26 0.20Unspecified MEAS
1482014-07-11 08:39EDTYesmn/kmbUSGS-130000.25 0.20Unspecified MEAS
1472014-07-11 08:29EDTYesmn/kmbUSGS-97800.24 0.20Unspecified MEAS
1462014-07-11 08:18:30EDTYesmn/kmbUSGS-136000.22 0.20Unspecified MEAS
1452014-07-11 08:08:30EDTYesmn/kmbUSGS-104000.19 0.20Unspecified MEAS
1442014-07-11 07:58EDTYesmn/kmbUSGS-142000.15 0.20Unspecified MEAS
1432014-07-11 07:48EDTYesmn/kmbUSGS-100000.16 0.20Unspecified MEAS
1422014-07-11 07:37:30EDTYesmn/kmbUSGS-121000.14 0.20Unspecified MEAS
1412014-07-11 07:26:30EDTYesmn/kmbUSGS-76200.11 0.20Unspecified MEAS
1402014-07-11 07:16EDTYesmn/kmbUSGS-91500.08 0.20Unspecified MEAS
1392014-07-11 07:06EDTYesmn/kmbUSGS-198000.07 0.20Unspecified MEAS
1382014-07-11 06:56EDTYesmn/kmbUSGS-46600.04 0.20Unspecified MEAS
1372014-07-11 06:44:30EDTYesmn/kmbUSGS17200.02 0.20Unspecified MEAS
1362014-07-10 19:03:30EDTYesmn/kmbUSGS-194000.07 0.20Unspecified MEAS
1352014-07-10 18:53EDTYesmn/kmbUSGS-166000.03 0.20Unspecified MEAS
1342014-07-10 18:43EDTYesmn/kmbUSGS-189000.00 0.20Unspecified MEAS
1332014-07-10 18:33EDTYesmn/kmbUSGS-16600-0.02 Unspecified MEAS
1322014-07-10 18:22EDTYesmn/kmbUSGS-18400-0.05 1.20Unspecified MEAS
1312014-07-10 18:12EDTYesmn/kmbUSGS-14000-0.09 0.20Unspecified MEAS
1302014-07-10 18:02EDTYesmn/kmbUSGS-15900-0.11 0.20Unspecified MEAS
1292014-07-10 17:39EDTYesmn/kmbUSGS-9540-0.17 0.20Unspecified MEAS
1282014-07-10 17:27:30EDTYesmn/kmbUSGS3540-0.21 0.20Unspecified MEAS
1272014-07-10 17:17EDTYesmn/kmbUSGS-3980-0.24 0.20Unspecified MEAS
1262014-07-10 17:06:30EDTYesmn/kmbUSGS852-0.28 0.20Unspecified MEAS
1252014-07-10 16:56EDTYesmn/kmbUSGS147-0.29 0.20Unspecified MEAS
1242014-07-10 16:45:30EDTYesmn/kmbUSGS5720-0.33 0.20Unspecified MEAS
1232014-07-10 16:35:30EDTYesmn/kmbUSGS3600-0.37 0.20Unspecified MEAS
1222014-07-10 16:25EDTYesmn/kmbUSGS8840-0.39 0.20Unspecified MEAS
1212014-07-10 16:14EDTYesmn/kmbUSGS5700-0.39 0.10Unspecified MEAS
1202014-07-10 16:03:30EDTYesmn/kmbUSGS9230-0.36 0.20Unspecified MEAS
1192014-07-10 15:52:30EDTYesmn/kmbUSGS6340-0.36 0.20Unspecified MEAS
1182014-07-10 15:42:30EDTYesmn/kmbUSGS9550-0.34 0.20Unspecified MEAS
1172014-07-10 15:31:30EDTYesmn/kmbUSGS7790-0.32 0.20Unspecified MEAS
1162014-07-10 15:21:30EDTYesmn/kmbUSGS9460-0.32 0.20Unspecified MEAS
1152014-07-10 15:11EDTYesmn/kmbUSGS6750-0.27 0.10Unspecified MEAS
1142014-07-10 15:01EDTYesmn/kmbUSGS11100-0.25 0.20Unspecified MEAS
1132014-07-10 14:50:30EDTYesmn/kmbUSGS7750-0.25 0.20Unspecified MEAS
1122014-07-10 14:40EDTYesmn/kmbUSGS11600-0.22 0.20Unspecified MEAS
1112014-07-10 14:29:30EDTYesmn/kmbUSGS8270-0.19 0.20Unspecified MEAS
1102014-07-10 14:18:30EDTYesmn/jmbUSGS11700-0.15 0.20Unspecified MEAS
1092014-07-10 13:58:30EDTYesmn/kmbUSGS11100-0.11 0.20Unspecified MEAS
1082014-07-10 13:48:30EDTYesmn/kmbUSGS7800-0.10 0.20Unspecified MEAS
1072014-07-10 13:38EDTYesmn/kmbUSGS12000-0.11 0.20Unspecified MEAS
1062014-07-10 13:25:30EDTYesmn/kmbUSGS6910-0.04 0.20Unspecified MEAS
1052014-07-10 13:11:30EDTYesmn/kmbUSGS109000.01 0.20Unspecified MEAS
1042013-06-04 16:20EDTYesjjt/afwUSGS-17500-0.31 Unspecified MEAS
1032013-06-04 16:11EDTYesjjt/afwUSGS-11800-0.34 Unspecified MEAS
1022013-06-04 16:01EDTYesjjt/afwUSGS-17300-0.33 Unspecified MEAS
1012013-06-04 15:41EDTYesjjt/afwUSGS-13100-0.44 Unspecified MEAS
1002013-06-04 15:30EDTYesjjt/afwUSGS-6430-0.44 Unspecified MEAS
992013-06-04 15:20EDTYesjjt/afwUSGS-7180-0.45 Unspecified MEAS
982013-06-04 15:08EDTYesjjt/afwUSGS-608-0.50 Unspecified MEAS
972013-06-04 14:57EDTYesjjt/afwUSGS-493-0.47 Unspecified MEAS
962013-06-04 14:48EDTYesjjt/afwUSGS4130-0.47 Unspecified MEAS
952013-06-04 14:39EDTYesjjt/afwUSGS2950-0.47 Unspecified MEAS
942013-06-04 14:29EDTYesjjt/afwUSGS5950-0.45 Unspecified MEAS
932013-06-04 14:19EDTYesjjt/afwUSGS6530-0.45 Unspecified MEAS
922013-06-04 14:09EDTYesjjt/afwUSGS9150-0.44 Unspecified MEAS
912013-06-04 13:59EDTYesjjt/afwUSGS7440-0.42 Unspecified MEAS
902013-06-04 13:49EDTYesjjt/afwUSGS10800-0.39 Unspecified MEAS
892013-06-04 13:40EDTYesjjt/afwUSGS8950-0.42 Unspecified MEAS
882013-06-04 13:30EDTYesjjt/afwUSGS10200-0.37 Unspecified MEAS
872013-06-04 13:20EDTYesjjt/afwUSGS7940-0.35 Unspecified MEAS
862013-06-04 13:10EDTYesjjt/afwUSGS11500-0.34 Unspecified MEAS
852013-06-04 12:47EDTYesjjt/afwUSGS11400-0.27 Unspecified MEAS
842013-06-04 11:39EDTYesjjt/afwUSGS2230-0.16 Unspecified MEAS
832013-06-04 11:29EDTYesjjt/afwUSGS5230-0.12 Unspecified MEAS
822013-06-04 11:20EDTYesjjt/afwUSGS888-0.10 Unspecified MEAS
812013-06-04 11:09EDTYesjjt/afwUSGS4070-0.09 Unspecified MEAS
802013-06-04 10:59EDTYesjjt/afwUSGS-1280-0.07 Unspecified MEAS
792013-06-04 10:41EDTYesjjt/afwUSGS2560-0.06 Unspecified MEAS
782012-06-06 18:24EDTYesmn/jjtUSGS27001.04 Unspecified MEAS
772012-06-06 17:50EDTYesmn/jjtUSGS129001.09 Unspecified MEAS
762012-06-06 17:42EDTYesmn/jjtUSGS79901.11 Unspecified MEAS
752012-06-06 17:34EDTYesmn/jjtUSGS142001.15 Unspecified MEAS
742012-06-06 17:25EDTYesmn/jjtUSGS105001.16 Unspecified MEAS
732012-06-06 17:16EDTYesmn/jjtUSGS163001.19 Unspecified MEAS
722012-06-06 17:08EDTYesmn/jjtUSGS107001.21 Unspecified MEAS
712012-06-06 17:00EDTYesmn/jjtUSGS150001.22 Unspecified MEAS
702012-06-06 16:51EDTYesmn/jjtUSGS100001.24 Unspecified MEAS
692012-06-06 16:43EDTYesmn/jjtUSGS157001.24 Unspecified MEAS
682012-06-06 16:35EDTYesmn/jjtUSGS105001.28 Unspecified MEAS
672012-06-06 16:27EDTYesmn/jjtUSGS144001.29 Unspecified MEAS
662012-06-06 16:18EDTYesmn/jjtUSGS92301.32 Unspecified MEAS
652012-06-06 16:09EDTYesmn/jjtUSGS137001.33 Unspecified MEAS
642012-06-06 16:01EDTYesmn/jjtUSGS87901.35 Unspecified MEAS
632012-06-06 15:52EDTYesmn/jjtUSGS139001.37 Unspecified MEAS
622012-06-06 15:44EDTYesmn/jjtUSGS76701.39 Unspecified MEAS
612012-06-06 15:35EDTYesmn/jjtUSGS125001.41 Unspecified MEAS
602012-06-06 15:27EDTYesmn/jjtUSGS55401.43 Unspecified MEAS
592012-06-06 15:19EDTYesmn/jjtUSGS131001.46 Unspecified MEAS
582012-06-06 15:10EDTYesmn/jjtUSGS43401.45 Unspecified MEAS
572012-06-06 15:02EDTYesmn/jjtUSGS107001.46 Unspecified MEAS
562012-06-06 14:53EDTYesmn/jjtUSGS39101.48 Unspecified MEAS
552012-06-06 14:45EDTYesmn/jjtUSGS74301.48 Unspecified MEAS
542012-06-06 14:37EDTYesmn/jjtUSGS18301.51 Unspecified MEAS
532012-06-06 14:29EDTYesmn/jjtUSGS43201.52 Unspecified MEAS
522012-06-06 14:21EDTYesmn/jjtUSGS-34101.55 Unspecified MEAS
512012-06-06 14:13EDTYesmn/jjtUSGS2951.54 Unspecified MEAS
502012-06-06 14:03EDTYesmn/jjtUSGS-75701.53 Unspecified MEAS
492012-06-06 13:55EDTYesmn/jjtUSGS-51401.58 Unspecified MEAS
482012-06-06 13:47EDTYesmn/jjtUSGS-121001.58 Unspecified MEAS
472012-06-06 13:23EDTYesmn/jjtUSGS-133001.60 Unspecified MEAS
462012-06-06 13:15EDTYesmn/jjtUSGS-215001.60 Unspecified MEAS
452012-06-06 13:07EDTYesmn/jjtUSGS-154001.62 Unspecified MEAS
442012-06-06 12:59EDTYesmn/jjtUSGS-223001.60 Unspecified MEAS
432012-06-06 12:51EDTYesmn/jjtUSGS-165001.58 Unspecified MEAS
422012-06-06 12:43EDTYesmn/jjtUSGS-227001.56 Unspecified MEAS
412012-06-06 12:36EDTYesmn/jjtUSGS-165001.55 Unspecified MEAS
402012-06-06 12:28EDTYesmn/jjtUSGS-219001.55 Unspecified MEAS
392012-06-06 11:51EDTYesmn/jjtUSGS-158001.48 Unspecified MEAS
382012-06-06 11:43EDTYesmn/jjtUSGS-194001.46 Unspecified MEAS
372012-06-06 11:18EDTYesmn/jjtUSGS-161001.39 Unspecified MEAS
362012-06-06 11:10EDTYesmn/jjtUSGS-200001.38 Unspecified MEAS
352012-06-06 11:00EDTYesmn/jjtUSGS-154001.36 Unspecified MEAS
342012-06-06 10:52EDTYesmn/jjtUSGS-215001.34 Unspecified MEAS
332012-06-06 10:44EDTYesmn/jjtUSGS-152001.32 Unspecified MEAS
322012-06-06 10:36EDTYesmn/jjtUSGS-208001.30 Unspecified MEAS
312012-06-06 10:28EDTYesmn/jjtUSGS-154001.28 Unspecified MEAS
302012-06-06 10:20EDTYesmn/jjtUSGS-192001.25 Unspecified MEAS
292012-06-06 10:12EDTYesmn/jjtUSGS-124001.24 Unspecified MEAS
282012-06-06 10:04EDTYesmn/jjtUSGS-169001.22 Unspecified MEAS
272012-06-06 09:56EDTYesmn/jjtUSGS-88401.20 Unspecified MEAS
262012-06-06 09:48EDTYesmn/jjtUSGS-114001.18 Unspecified MEAS
252012-06-06 09:39EDTYesmn/jjtUSGS-55601.15 Unspecified MEAS
242012-06-06 09:31EDTYesmn/jjtUSGS-64101.14 Unspecified MEAS
232012-06-06 09:23EDTYesmn/jjtUSGS3231.12 Unspecified MEAS
222012-06-06 09:15EDTYesmn/jjtUSGS-2841.10 Unspecified MEAS
212012-06-06 09:07EDTYesmn/jjtUSGS50201.07 Unspecified MEAS
202012-06-06 08:59EDTYesmn/jjtUSGS30301.05 Unspecified MEAS
192012-06-06 08:50EDTYesmn/jjtUSGS94201.03 Unspecified MEAS
182012-06-06 08:42EDTYesmn/jjtUSGS71701.01 Unspecified MEAS
172012-06-06 08:34EDTYesmn/jjtUSGS133001.00 Unspecified MEAS
162012-06-06 08:26EDTYesmn/jjtUSGS110001.00 Unspecified MEAS
152012-06-06 08:18EDTYesmn/jjtUSGS155001.01 Unspecified MEAS
142012-06-06 08:10EDTYesmn/jjtUSGS155001.01 Unspecified MEAS
132012-06-06 08:02EDTYesmn/jjtUSGS145001.02 Unspecified MEAS
122012-06-06 07:55EDTYesmn/jjtUSGS126001.03 Unspecified MEAS
112012-06-06 07:47EDTYesmn/jjtUSGS169001.05 Unspecified MEAS
102012-06-06 07:39EDTYesmn/jjtUSGS147001.07 Unspecified MEAS
92012-06-06 07:31EDTYesmn/jjtUSGS196001.09 Unspecified MEAS
82012-06-06 07:23EDTYesmn/jjtUSGS139001.09 Unspecified MEAS
72012-06-06 07:15EDTYesmn/jjtUSGS200001.11 Unspecified MEAS
62012-06-06 07:07EDTYesmn/jjtUSGS158001.13 Unspecified MEAS
52012-06-06 07:00EDTYesmn/jjtUSGS199001.16 Unspecified MEAS
42012-06-06 06:52EDTYesmn/jjtUSGS160001.17 Unspecified MEAS
32012-06-06 06:45EDTYesmn/jjtUSGS207001.18 Unspecified MEAS
22012-06-06 06:37EDTYesmn/jjtUSGS158001.21 Unspecified MEAS
12012-06-06 06:28EDTYesmn/jjtUSGS208001.24 Unspecified MEAS